Simultaneous Nadir Overpasses (SNOs) Predictions

Prediction of SNOs between GOES-16 and NOAA-20 Satellite Orbit:

Table of predicted SNOs for the next 14.0 days since TLE Epoch: 12/6/2019
Index Date Time (GOES-16) GOES-16 Lat,Lon NOAA-20 Lat,Lon Distance(km) Time Diff (sec)
1 12/07/2019 06:16:48 0.01, -75.20 -0.36, -73.41 203.23 80
2 12/08/2019 18:38:44 -0.01, -75.20 -0.82, -78.71 400.53 80
3 12/09/2019 18:22:40 -0.01, -75.21 0.21, -74.18 116.41 80
4 12/11/2019 06:44:27 0.01, -75.21 0.99, -79.44 483.38 80
5 12/12/2019 06:23:02 0.01, -75.21 -0.04, -74.92 33.60 80
6 12/14/2019 18:26:14 -0.02, -75.22 -0.11, -75.69 52.77 80
7 12/15/2019 18:10:10 -0.02, -75.23 0.92, -71.16 464.34 80
8 12/17/2019 06:31:57 0.01, -75.24 0.27, -76.42 134.89 80
9 12/18/2019 06:10:33 0.00, -75.25 -0.75, -71.90 382.41 80
10 12/19/2019 18:35:09 -0.00, -75.27 -0.42, -77.20 220.02 80




NCC Satellite Simultaneous Nadir Overpasses (SNOs) Prediction Service
